JBU541 KBOS-KCLE

Flight info

Callsign JBU541
Flight time N/A
Altitude 36000
Route HYLND7 HYLND CAM Q822 GONZZ HANKK THOME TRYBE4
Aircraft A320/M-SDE3FGHIRWY/LB1

Departure

Time 2026-04-30 05:31
Airport Boston Logan International Airport (KBOS)

Arrival

Time N/A
Airport Cleveland Hopkins International Airport (KCLE)
Time Latitude Longitude Altitude Speed Heading
2026-04-30 04:53 42.36549 -71.01410 24 ft 0 kts 328°
2026-04-30 05:16 42.36544 -71.01406 24 ft 4 kts 326°
2026-04-30 05:17 42.36523 -71.01384 25 ft 4 kts 311°
2026-04-30 05:17 42.36510 -71.01355 27 ft 4 kts 272°
2026-04-30 05:17 42.36514 -71.01336 27 ft 0 kts 206°
2026-04-30 05:25 42.36510 -71.01339 25 ft 0 kts 206°
2026-04-30 05:25 42.36506 -71.01342 26 ft 2 kts 206°
2026-04-30 05:25 42.36495 -71.01349 25 ft 2 kts 205°
2026-04-30 05:25 42.36458 -71.01370 24 ft 11 kts 202°
2026-04-30 05:26 42.36369 -71.01375 24 ft 13 kts 131°
2026-04-30 05:26 42.36398 -71.01302 25 ft 9 kts 17°
2026-04-30 05:26 42.36463 -71.01271 24 ft 11 kts 25°
2026-04-30 05:26 42.36548 -71.01229 25 ft 15 kts 18°
2026-04-30 05:27 42.36647 -71.01181 28 ft 16 kts 21°
2026-04-30 05:27 42.36759 -71.01141 27 ft 18 kts
2026-04-30 05:27 42.36863 -71.01241 24 ft 20 kts 311°
2026-04-30 05:27 42.36960 -71.01367 26 ft 19 kts 315°
2026-04-30 05:28 42.37057 -71.01498 27 ft 20 kts 314°
2026-04-30 05:28 42.37141 -71.01616 29 ft 16 kts 314°
2026-04-30 05:28 42.37223 -71.01698 28 ft 14 kts 314°
2026-04-30 05:28 42.37273 -71.01789 29 ft 11 kts 313°
2026-04-30 05:29 42.37321 -71.01850 29 ft 9 kts 327°
2026-04-30 05:29 42.37373 -71.01843 28 ft 8 kts 36°
2026-04-30 05:29 42.37396 -71.01764 30 ft 11 kts 101°
2026-04-30 05:29 42.37324 -71.01651 30 ft 27 kts 137°
2026-04-30 05:30 42.37074 -71.01312 27 ft 80 kts 135°
2026-04-30 05:30 42.36556 -71.00620 30 ft 126 kts 135°
2026-04-30 05:30 42.35836 -70.99655 43 ft 164 kts 136°
2026-04-30 05:30 42.35032 -70.98584 563 ft 160 kts 133°
2026-04-30 05:31 42.34381 -70.97357 1027 ft 163 kts 112°
2026-04-30 05:31 42.34140 -70.95843 1292 ft 178 kts 99°
2026-04-30 05:31 42.33844 -70.94129 1434 ft 196 kts 109°
2026-04-30 05:31 42.33359 -70.92303 1529 ft 219 kts 110°
2026-04-30 05:32 42.32859 -70.90236 1648 ft 242 kts 108°
2026-04-30 05:32 42.32384 -70.87998 2037 ft 251 kts 107°
2026-04-30 05:32 42.32171 -70.85639 2576 ft 260 kts 85°
2026-04-30 05:32 42.32579 -70.83238 3130 ft 264 kts 79°
2026-04-30 05:33 42.33065 -70.80842 3684 ft 265 kts 79°
2026-04-30 05:33 42.33574 -70.78433 4212 ft 269 kts 75°
2026-04-30 05:33 42.34528 -70.76228 4703 ft 279 kts 51°
2026-04-30 05:33 42.36097 -70.74646 5182 ft 287 kts 26°
2026-04-30 05:34 42.37997 -70.73767 5675 ft 290 kts 19°
2026-04-30 05:34 42.39940 -70.72958 6138 ft 294 kts 19°
2026-04-30 05:34 42.41902 -70.72147 6587 ft 297 kts 17°
2026-04-30 05:34 42.43956 -70.71746 7326 ft 301 kts
2026-04-30 05:35 42.46038 -70.72068 8129 ft 303 kts 344°
2026-04-30 05:35 42.48002 -70.73091 8932 ft 303 kts 332°
2026-04-30 05:35 42.49912 -70.74337 9746 ft 306 kts 332°
2026-04-30 05:35 42.51798 -70.75683 10464 ft 307 kts 324°
2026-04-30 05:36 42.53521 -70.77497 10766 ft 324 kts 312°
2026-04-30 05:36 42.55003 -70.79903 10911 ft 343 kts 300°
2026-04-30 05:36 42.56325 -70.82674 11281 ft 355 kts 300°
2026-04-30 05:36 42.57688 -70.85499 11893 ft 360 kts 300°
2026-04-30 05:37 42.59075 -70.88346 12542 ft 364 kts 300°
2026-04-30 05:37 42.60486 -70.91227 13174 ft 368 kts 300°
2026-04-30 05:37 42.61910 -70.94141 13802 ft 373 kts 300°
2026-04-30 05:37 42.63329 -70.97049 14364 ft 376 kts 300°
2026-04-30 05:38 42.64776 -71.00016 14947 ft 378 kts 300°
2026-04-30 05:38 42.66231 -71.03006 15538 ft 381 kts 300°
2026-04-30 05:38 42.67697 -71.06021 16122 ft 383 kts 300°
2026-04-30 05:38 42.69168 -71.09053 16706 ft 386 kts 300°
2026-04-30 05:39 42.70648 -71.12109 17301 ft 388 kts 300°
2026-04-30 05:39 42.72137 -71.15185 17905 ft 391 kts 300°
2026-04-30 05:39 42.73635 -71.18285 18470 ft 394 kts 300°
2026-04-30 05:39 42.75140 -71.21410 19016 ft 396 kts 300°
2026-04-30 05:40 42.76640 -71.24568 19552 ft 398 kts 297°
2026-04-30 05:40 42.77826 -71.27951 20097 ft 396 kts 287°
2026-04-30 05:40 42.78542 -71.31560 20632 ft 395 kts 276°
2026-04-30 05:40 42.78954 -71.35259 21160 ft 397 kts 275°
2026-04-30 05:41 42.79365 -71.38985 21660 ft 399 kts 275°
2026-04-30 05:41 42.79781 -71.42726 22144 ft 401 kts 275°
2026-04-30 05:41 42.80201 -71.46496 22618 ft 404 kts 275°
2026-04-30 05:41 42.80624 -71.50289 23084 ft 406 kts 276°
2026-04-30 05:42 42.81049 -71.54105 23533 ft 409 kts 276°
2026-04-30 05:42 42.81475 -71.57951 23922 ft 412 kts 275°
2026-04-30 05:42 42.81898 -71.61814 24296 ft 414 kts 275°
2026-04-30 05:42 42.82322 -71.65699 24672 ft 415 kts 275°
2026-04-30 05:43 42.82746 -71.69595 25051 ft 417 kts 275°
2026-04-30 05:43 42.83171 -71.73510 25417 ft 418 kts 275°
2026-04-30 05:43 42.83596 -71.77435 25761 ft 420 kts 275°
2026-04-30 05:43 42.84023 -71.81380 26122 ft 421 kts 275°
2026-04-30 05:44 42.84448 -71.85336 26480 ft 423 kts 275°
2026-04-30 05:44 42.84871 -71.89310 26833 ft 425 kts 275°
2026-04-30 05:44 42.85290 -71.93251 27192 ft 427 kts 274°
2026-04-30 05:44 42.85716 -71.97263 27519 ft 429 kts 274°
2026-04-30 05:45 42.86142 -72.01294 27861 ft 431 kts 274°
2026-04-30 05:45 42.86569 -72.05345 28200 ft 433 kts 274°
2026-04-30 05:45 42.87004 -72.09467 28536 ft 434 kts 274°
2026-04-30 05:45 42.87434 -72.13543 28977 ft 433 kts 274°
2026-04-30 05:46 42.87862 -72.17599 29470 ft 431 kts 274°
2026-04-30 05:46 42.88286 -72.21641 29980 ft 430 kts 274°
2026-04-30 05:46 42.88703 -72.25665 30438 ft 428 kts 273°
2026-04-30 05:46 42.89118 -72.29684 30812 ft 427 kts 273°
2026-04-30 05:47 42.89529 -72.33691 31222 ft 426 kts 273°
2026-04-30 05:47 42.89940 -72.37683 31682 ft 424 kts 273°
2026-04-30 05:47 42.90346 -72.41650 32156 ft 421 kts 272°
2026-04-30 05:47 42.90747 -72.45589 32626 ft 418 kts 272°
2026-04-30 05:48 42.91145 -72.49508 33104 ft 416 kts 272°
2026-04-30 05:48 42.91538 -72.53400 33592 ft 413 kts 272°
2026-04-30 05:48 42.91924 -72.57216 34041 ft 410 kts 272°
2026-04-30 05:48 42.92318 -72.61112 34407 ft 409 kts 272°
2026-04-30 05:49 42.92703 -72.64973 34588 ft 412 kts 272°
2026-04-30 05:49 42.93082 -72.68805 34787 ft 414 kts 272°
2026-04-30 05:49 42.93474 -72.72750 35040 ft 414 kts 272°
2026-04-30 05:49 42.93861 -72.76639 35305 ft 414 kts 273°
2026-04-30 05:50 42.94248 -72.80528 35566 ft 414 kts 273°
2026-04-30 05:50 42.94630 -72.84423 35789 ft 414 kts 273°
2026-04-30 05:50 42.95391 -72.92224 35882 ft 422 kts 273°
2026-04-30 05:51 42.96169 -73.00207 35860 ft 425 kts 273°
2026-04-30 05:51 42.96945 -73.08201 35863 ft 425 kts 273°
2026-04-30 05:52 42.97711 -73.16202 35857 ft 425 kts 272°
2026-04-30 05:52 42.98468 -73.24209 35862 ft 425 kts 272°
2026-04-30 05:53 42.99224 -73.32268 35880 ft 425 kts 272°
2026-04-30 05:53 42.99579 -73.40276 35875 ft 422 kts 267°
2026-04-30 05:54 42.99776 -73.48274 35872 ft 421 kts 267°
2026-04-30 05:54 42.99966 -73.56281 35868 ft 421 kts 267°
2026-04-30 05:55 43.00151 -73.64277 35862 ft 421 kts 267°
2026-04-30 05:55 43.00338 -73.72274 35886 ft 421 kts 267°
2026-04-30 05:56 43.00521 -73.80276 35874 ft 421 kts 267°
2026-04-30 05:56 43.00692 -73.88272 35870 ft 421 kts 267°
2026-04-30 05:57 43.00854 -73.96267 35855 ft 421 kts 267°
2026-04-30 05:57 43.01010 -74.04264 35870 ft 421 kts 267°
2026-04-30 05:58 43.01166 -74.12212 35851 ft 421 kts 267°
2026-04-30 05:58 43.01312 -74.20209 35850 ft 421 kts 267°
2026-04-30 05:59 43.01473 -74.28213 35836 ft 422 kts 268°
2026-04-30 05:59 43.01826 -74.36224 35849 ft 423 kts 270°
2026-04-30 06:00 43.02249 -74.44242 35839 ft 423 kts 269°
2026-04-30 06:00 43.02632 -74.52267 35823 ft 423 kts 269°
2026-04-30 06:01 43.02977 -74.60297 35819 ft 423 kts 269°
2026-04-30 06:01 43.03316 -74.68329 35815 ft 423 kts 269°
2026-04-30 06:02 43.03645 -74.76361 35816 ft 423 kts 269°
2026-04-30 06:02 43.03974 -74.84400 35807 ft 424 kts 269°
2026-04-30 06:03 43.04302 -74.92437 35805 ft 424 kts 269°
2026-04-30 06:03 43.04627 -75.00477 35805 ft 424 kts 269°
2026-04-30 06:04 43.04946 -75.08516 35823 ft 424 kts 269°
2026-04-30 06:05 43.05412 -75.20586 35809 ft 424 kts 269°
2026-04-30 06:05 43.05711 -75.28627 35805 ft 423 kts 269°
2026-04-30 06:06 43.05967 -75.36660 35806 ft 423 kts 268°
2026-04-30 06:06 43.06180 -75.44697 35827 ft 423 kts 268°
2026-04-30 06:07 43.06394 -75.52731 35815 ft 423 kts 268°
2026-04-30 06:07 43.06572 -75.59415 35807 ft 423 kts 268°
2026-04-30 06:08 43.06782 -75.67450 35802 ft 423 kts 268°
2026-04-30 06:08 43.06991 -75.75493 35803 ft 423 kts 268°
2026-04-30 06:09 43.07189 -75.83536 35820 ft 423 kts 268°
2026-04-30 06:09 43.07379 -75.91582 35812 ft 424 kts 268°
2026-04-30 06:10 43.07566 -75.99638 35832 ft 424 kts 268°
2026-04-30 06:10 43.07754 -76.07693 35830 ft 424 kts 268°
2026-04-30 06:11 43.07932 -76.15747 35851 ft 424 kts 268°
2026-04-30 06:11 43.08100 -76.23800 35841 ft 423 kts 268°
2026-04-30 06:12 43.08268 -76.31851 35837 ft 423 kts 268°
2026-04-30 06:12 43.08428 -76.39892 35835 ft 423 kts 268°
2026-04-30 06:13 43.08585 -76.47933 35842 ft 423 kts 268°
2026-04-30 06:13 43.08730 -76.55970 35859 ft 423 kts 268°
2026-04-30 06:14 43.08825 -76.64006 35855 ft 421 kts 264°